CW3081 Weather Reports


time (UTC)temp
C
wind
direction
speed
KPH
gust
KPH
rain 1hr
cm
rain 24hr
cm
rain mn
cm
humidity
%
barometer
mb
20260904013050 27 0 0.0 0.0 0.00 0.00 0.00 88 1015.6
20260904011551 27 0 0.0 0.0 0.00 0.00 0.00 87 1015.2
20260904010115 27 0 0.0 0.0 0.00 0.00 0.00 86 1015.1
20260904004556 28 0 0.0 0.0 0.00 0.00 0.00 85 1015.1
20260904003106 28 0 0.0 0.0 0.00 0.00 0.00 84 1014.9
20260904001603 29 0 0.0 0.0 0.00 0.00 0.00 82 1014.9
20260904000100 30 0 0.0 0.0 0.00 0.00 0.00 80 1014.9
20260903234558 30 0 0.0 0.0 0.00 0.00 0.00 79 1014.9
20260903233103 31 0 0.0 0.0 0.00 0.00 0.00 78 1014.8
20260903231603 31 0 0.0 0.0 0.00 0.00 0.00 74 1014.7
20260903230100 32 0 0.0 0.0 0.00 0.00 0.00 70 1014.4
20260903224555 32 0 0.0 0.0 0.00 0.00 0.00 66 1014.3
20260903223052 32 0 0.0 0.0 0.00 0.00 0.00 67 1014.4
20260903221600 33 0 0.0 0.0 0.00 0.00 0.00 66 1014.4
20260903220057 33 0 0.0 0.0 0.00 0.00 0.00 64 1014.4
20260903214558 33 0 0.0 1.6 0.00 0.00 0.00 61 1014.5
20260903213056 33 0 0.0 0.0 0.00 0.00 0.00 62 1014.6
20260903211550 33 0 0.0 0.0 0.00 0.00 0.00 62 1014.8
20260903210117 33 0 0.0 0.0 0.00 0.00 0.00 60 1015.1
20260903204617 32 0 0.0 0.0 0.00 0.00 0.00 67 1015.2
20260903203053 32 0 0.0 0.0 0.00 0.00 0.00 68 1015.3
20260903201559 32 0 0.0 0.0 0.00 0.00 0.00 72 1015.6
20260903200057 33 0 0.0 0.0 0.00 0.00 0.00 66 1015.6
20260903194552 32 0 0.0 0.0 0.00 0.00 0.00 62 1015.8
20260903193053 33 0 0.0 0.0 0.00 0.00 0.00 63 1016.0
20260903191554 33 0 0.0 0.0 0.00 0.00 0.00 65 1016.1
20260903190050 33 0 0.0 1.6 0.00 0.00 0.00 65 1016.4
20260903184600 34 0 0.0 0.0 0.00 0.00 0.00 56 1016.3
20260903183059 35 0 0.0 1.6 0.00 0.00 0.00 57 1016.4
20260903181554 35 18 1.6 3.2 0.00 0.00 0.00 58 1016.5
20260903180052 34 31 0.0 3.2 0.00 0.00 0.00 55 1016.7
20260903174601 34 0 0.0 1.6 0.00 0.00 0.00 57 1016.9
20260903173057 33 11 1.6 3.2 0.00 0.00 0.00 56 1017.2
20260903171557 33 0 0.0 3.2 0.00 0.00 0.00 59 1017.4
20260903170050 33 138 0.0 1.6 0.00 0.00 0.00 61 1017.5
20260903164551 33 77 0.0 1.6 0.00 0.00 0.00 57 1017.6
20260903163101 32 0 0.0 1.6 0.00 0.00 0.00 63 1017.7
20260903161553 32 0 0.0 1.6 0.00 0.00 0.00 65 1017.8
20260903160109 31 0 0.0 1.6 0.00 0.00 0.00 66 1017.9
20260903154604 31 0 0.0 1.6 0.00 0.00 0.00 68 1017.9
20260903153058 30 0 0.0 0.0 0.00 0.00 0.00 72 1018.0
20260903151554 30 0 0.0 0.0 0.00 0.00 0.00 72 1017.9
20260903150104 29 0 0.0 0.0 0.00 0.00 0.00 75 1017.9
20260903144606 28 0 0.0 0.0 0.00 0.00 0.00 78 1017.9
20260903143048 27 0 0.0 0.0 0.00 0.00 0.00 81 1017.9
20260903141557 27 0 0.0 0.0 0.00 0.00 0.00 86 1017.9
20260903140113 -17 0.0 0.0 0.00 0.00 0.00 1018.0
20260903134551 -17 0.0 0.0 0.00 0.00 0.00 1018.0
20260903133107 -17 0.0 0.0 0.00 0.00 0.00 1018.1
20260903131557 -17 0.0 0.0 0.00 0.00 0.00 1018.1
20260903130053 -17 0.0 0.0 0.00 0.00 0.00 1018.1
20260903124558 -17 0.0 0.0 0.00 0.00 0.00 1018.0
20260903123051 -17 0.0 0.0 0.00 0.00 0.00 1018.0
20260903121554 -17 0.0 0.0 0.00 0.00 0.00 1018.0
20260903120101 -17 0.0 0.0 0.00 0.00 0.00 1017.9
20260903114550 -17 0.0 0.0 0.00 0.00 0.00 1017.7
20260903113056 -17 0.0 0.0 0.00 0.00 0.00 1017.6
20260903111556 -17 0.0 0.0 0.00 0.00 0.00 1017.5
20260903110052 -17 0.0 0.0 0.00 0.00 0.00 1017.4
20260903104550 -17 0.0 0.0 0.00 0.00 0.00 1017.3
20260903103059 -17 0.0 0.0 0.00 0.00 0.00 1017.1
20260903101555 -17 0.0 0.0 0.00 0.00 0.00 1017.0
20260903094607 -17 0.0 0.0 0.00 0.00 0.00 1017.0
20260903093147 22 0 0.0 0.0 0.00 0.00 0.00 95 1016.8
20260903091603 22 0 0.0 0.0 0.00 0.00 0.00 95 1016.9
20260903090104 22 0 0.0 0.0 0.00 0.00 0.00 95 1017.0
20260903084558 22 0 0.0 0.0 0.00 0.00 0.00 95 1016.9
20260903083101 22 0 0.0 0.0 0.00 0.00 0.00 95 1016.9
20260903081554 22 0 0.0 0.0 0.00 0.00 0.00 95 1016.9
20260903080121 22 0 0.0 0.0 0.00 0.00 0.00 95 1016.8
20260903074602 23 0 0.0 0.0 0.00 0.00 0.00 95 1016.8
20260903073110 23 0 0.0 0.0 0.00 0.00 0.00 95 1016.7
20260903071606 23 0 0.0 0.0 0.00 0.00 0.00 95 1016.7
20260903070052 23 0 0.0 0.0 0.00 0.00 0.00 95 1016.7
20260903064600 23 0 0.0 0.0 0.00 0.00 0.00 95 1016.7
20260903063057 23 0 0.0 0.0 0.00 0.00 0.00 95 1016.8
20260903061555 23 0 0.0 0.0 0.00 0.00 0.00 94 1017.1
20260903054602 23 0 0.0 0.0 0.00 0.00 0.00 94 1017.2
20260903053056 23 0 0.0 0.0 0.00 0.00 0.00 94 1017.0
20260903051552 23 0 0.0 0.0 0.00 0.00 0.00 94 1017.0
20260903050052 24 0 0.0 0.0 0.00 0.00 0.00 94 1017.0
20260903044554 24 0 0.0 0.0 0.00 0.00 0.00 93 1016.9
20260903043052 24 0 0.0 0.0 0.00 0.00 0.00 93 1016.8
20260903041552 24 0 0.0 0.0 0.00 0.00 0.00 93 1016.8
20260903040050 24 0 0.0 0.0 0.00 0.00 0.00 93 1016.9
20260903034601 25 0 0.0 0.0 0.00 0.00 0.00 92 1017.0
20260903033057 25 0 0.0 0.0 0.00 0.00 0.00 92 1017.1
20260903031622 25 0 0.0 0.0 0.00 0.00 0.00 92 1016.9
20260903024556 25 0 0.0 0.0 0.00 0.00 0.00 91 1017.0
20260903023107 25 0 0.0 0.0 0.00 0.00 0.00 91 1017.1
20260903021549 26 0 0.0 0.0 0.00 0.00 0.00 91 1017.1
20260903020100 26 0 0.0 0.0 0.00 0.00 0.00 89 1016.9
20260903014558 26 0 0.0 0.0 0.00 0.00 0.00 88 1016.7